OPS 8737

operational
NORAD ID: 14690 Int'l Des: 1984-012 Owner: NRO/NRL Country: US
LEO

关于 OPS 8737

正在加载描述...

实时位置

正在加载3D地球...

即将过境

高度历史

Altitude vs Time

uPlot chart will show altitude changes over time

两行轨道根数

1 14690U 84012A 26063.12753706 .00008579 00000-0 58390-3 0 9990
2 14690 63.2985 89.7159 0637855 123.0949 243.3018 14.13316220 93103
Epoch: Mar 4, 2026 • Age: 20 hours

当前状态

高度 1322.2 km
速度 6.97 km/s
星下点 -55.02°S, 55.95°W
发射日期 Feb 5, 1984
运行时间 42 years
类型 other

技术详情

分类 Payload
质量 559.00 kg
干质量 559.00 kg
总质量 590.00 kg
长度 1.60 m
直径 1.50 m
跨度 2.70 m
形状 Box + Ant
制造商 MM
平台类型 NOSS MSD
阶段状态 Attached in Orbit
所有者/国家 NRO/NRL/US

大型星座

Loading constellations...